1501599600.15,5506,26.25,75106.3,22.89,-5.23,-5.27,0,*7E
1501599601.4,5507,26.19,75102.8,22.89,-4.89,-5.11,0,*7B
1501599602.66,5508,26.25,75102.0,22.95,-4.81,-5.07,0,*76
1501599603.89,5509,26.19,75100.3,22.93,-4.69,-5.07,0,*77
1501599605.13,5510,26.25,75102.8,22.95,-4.65,-5.15,0,*76
1501599606.34,5511,26.25,75102.0,22.97,-4.81,-5.51,0,*7F
1501599607.55,5512,26.19,75098.5,22.97,-4.81,-5.55,0,*78
1501599608.79,5513,26.19,75098.8,22.97,-5.03,-5.93,0,*78
1501599610.03,5514,26.19,75098.8,22.99,-5.03,-6.13,0,*7A
1501599611.25,5515,26.19,75098.0,22.97,-3.91,-4.93,0,*72
1501599612.45,5516,26.19,75098.3,22.97,-3.75,-4.65,0,*72
1501599613.73,5517,26.25,75098.3,22.99,-4.01,-5.27,0,*7E
1501599614.93,5518,26.19,75098.0,22.97,-4.53,-5.73,0,*79
1501599616.14,5519,26.19,75098.3,22.97,-4.41,-5.73,0,*7B
1501599617.34,5520,26.19,75096.5,22.97,-4.69,-6.09,0,*75
1501599618.55,5521,26.19,75098.3,22.97,-4.89,-6.39,0,*79
1501599619.77,5522,26.19,75098.0,22.93,-5.19,-6.51,0,*78
1501599620.98,5523,26.25,75096.5,22.93,-4.33,-5.73,0,*73
1501599622.16,5524,26.19,75094.8,22.93,-4.17,-5.43,0,*71
1501599623.35,5525,26.25,75096.5,22.93,-4.99,-6.51,0,*76
1501599624.57,5526,26.25,75098.8,22.89,-5.23,-6.81,0,*73
1501599625.81,5527,26.25,75096.0,22.87,-5.31,-6.89,0,*77
1501599627.02,5528,26.25,75100.5,22.83,-5.23,-6.69,0,*71
1501599628.22,5529,26.25,75098.3,22.83,-4.77,-6.39,0,*75
1501599629.43,5530,26.25,75098.3,22.79,-4.85,-6.31,0,*7D
1501599630.63,5531,26.19,75098.0,22.75,-5.43,-7.01,0,*79
1501599631.87,5532,26.19,75096.8,22.71,-5.65,-7.31,0,*79
1501599633.08,5533,26.19,75094.5,22.71,-5.15,-6.69,0,*73
1501599634.32,5534,26.19,75096.3,22.65,-5.93,-7.53,0,*77
1501599635.55,5535,26.25,75096.5,22.61,-4.93,-6.51,0,*70
1501599636.79,5536,26.19,75098.8,22.61,-4.21,-5.65,0,*7E
1501599638.04,5537,26.19,75096.0,22.59,-3.63,-5.15,0,*72
1501599639.28,5538,26.25,75100.5,22.57,-3.35,-4.85,0,*78
1501599640.52,5539,26.25,75098.3,22.57,-4.01,-5.43,0,*72
1501599641.74,5540,26.25,75096.8,22.55,-3.27,-4.77,0,*7B
1501599643.0,5541,26.19,75098.5,22.53,-3.71,-5.11,0,*7E
1501599644.22,5542,26.25,75098.0,22.49,-3.23,-4.61,0,*77
1501599645.43,5543,26.25,75096.5,22.49,-3.19,-4.53,0,*7E
1501599646.67,5544,26.25,75100.8,22.47,-3.71,-5.03,0,*7D
1501599647.9,5545,26.19,75096.5,22.43,-3.79,-5.07,0,*74
1501599649.08,5546,26.19,75098.0,22.39,-3.23,-4.45,0,*72
1501599650.32,5547,26.25,75100.8,22.39,-2.47,-3.59,0,*7A
1501599651.53,5548,26.25,75098.3,22.39,-1.95,-2.95,0,*78
1501599652.76,5549,26.25,75100.8,22.37,-1.59,-2.47,0,*78
1501599653.97,5550,26.19,75096.8,22.37,-2.27,-3.03,0,*7B
1501599655.15,5551,26.25,75098.8,22.35,-2.27,-2.99,0,*7A
1501599656.33,5552,26.25,75100.0,22.35,-2.39,-3.19,0,*7F
1501599657.51,5553,26.25,75098.8,22.31,-2.31,-2.91,0,*73
1501599658.74,5554,26.25,75098.5,22.31,-2.71,-3.43,0,*7E
1501599659.97,5555,26.25,75098.8,22.29,-2.75,-3.39,0,*7F
1501599661.18,5556,26.19,75096.5,22.27,-1.91,-2.35,0,*76
1501599662.4,5557,26.25,75098.5,22.27,-1.87,-2.23,0,*77
1501599663.64,5558,26.25,75096.8,22.21,-1.21,-1.39,0,*7A
1501599664.88,5559,26.25,75098.0,22.25,-1.01,-1.17,0,*71
1501599666.1,5560,26.25,75100.0,22.25,-1.17,-1.17,0,*7C
1501599667.37,5561,26.25,75098.8,22.21,-1.43,-1.39,0,*74
1501599668.62,5562,26.25,75096.0,22.19,-1.01,-0.85,0,*4C
1501599669.82,5563,26.25,75098.8,22.17,-1.21,-0.89,0,*4D
1501599671.01,5564,26.19,75096.0,22.17,-1.71,-1.33,0,*7F
1501599672.24,5565,26.25,75096.5,22.15,-1.05,-0.53,0,*48
1501599673.45,5566,26.25,75098.8,22.15,-0.77,-0.19,0,*71
1501599674.64,5567,26.25,75098.0,22.13,-0.93,-0.29,0,*7F
1501599675.8,5568,26.25,75100.5,22.13,-0.77,0.09,0,*65
1501599676.99,5569,26.25,75100.0,22.13,-0.69,0.33,0,*52
1501599678.21,5570,26.25,75098.5,22.11,-0.49,0.51,0,*5E
1501599679.41,5571,26.25,75100.5,22.09,-0.61,0.75,0,*5A
1501599680.62,5572,26.25,75100.5,22.09,-2.31,-1.09,0,*79
1501599681.84,5573,26.25,75100.5,22.07,-2.27,-0.89,0,*48
1501599683.08,5574,26.25,75102.5,22.03,-2.67,-1.29,0,*74
1501599684.32,5575,26.25,75102.8,21.97,-3.51,-1.83,0,*7F
1501599685.53,5576,26.25,75100.8,21.95,-2.95,-1.33,0,*7C
1501599686.77,5577,26.25,75102.8,21.91,-3.11,-1.47,0,*77
1501599688.04,5578,26.25,75102.8,21.91,-2.11,-0.23,0,*4A
1501599689.23,5579,26.25,75102.5,21.87,-2.31,-0.37,0,*4B
1501599690.44,5580,26.25,75100.3,21.83,-2.99,-1.05,0,*7B
1501599691.62,5581,26.25,75100.3,21.83,-2.83,-0.73,0,*41
1501599692.84,5582,26.25,75100.8,21.79,-2.51,-0.33,0,*4C
1501599694.02,5583,26.25,75102.8,21.75,-2.87,-0.77,0,*4A
1501599695.2,5584,26.25,75102.5,21.71,-2.83,-0.65,0,*4E
1501599696.44,5585,26.25,75100.5,21.69,-2.51,-0.11,0,*4A
1501599697.68,5586,26.25,75100.8,21.69,-2.47,-0.15,0,*4A
1501599698.88,5587,26.25,75104.3,21.65,-2.27,0.09,0,*51
1501599700.11,5588,26.25,75100.0,21.63,-1.91,0.67,0,*6E
1501599701.34,5589,26.25,75102.5,21.63,-1.83,0.63,0,*68
1501599702.6,5590,26.25,75100.5,21.61,-1.83,0.71,0,*61
1501599703.83,5591,26.25,75104.0,21.59,-1.91,0.75,0,*6C
1501599705.05,5592,26.25,75102.5,21.57,-1.79,0.95,0,*69
1501599706.29,5593,26.25,75104.3,21.57,-1.29,1.55,0,*50
1501599707.5,5594,26.25,75102.5,21.53,-1.21,1.55,0,*5B
1501599708.75,5595,26.25,75102.5,21.51,-1.35,1.47,0,*5E
1501599709.98,5596,26.25,75102.3,21.51,-1.25,1.63,0,*5A
1501599711.2,5597,26.25,75100.5,21.49,-0.89,1.89,0,*61
1501599712.44,5598,26.25,75104.8,21.47,-0.11,2.77,0,*63
1501599713.64,5599,26.25,75104.3,21.49,0.47,3.25,0,*44
1501599714.86,5600,26.25,75104.8,21.49,0.47,3.49,0,*4D
1501599716.09,5601,26.25,75104.0,21.49,0.25,3.15,0,*41
1501599717.29,5602,26.25,75104.5,21.49,-0.41,2.55,0,*68
1501599718.54,5603,26.25,75100.0,21.47,0.13,3.15,0,*48
1501599719.77,5604,26.25,75098.8,21.47,0.43,3.33,0,*4E
1501599720.96,5605,26.25,75102.8,21.49,0.63,3.59,0,*4F
1501599722.18,5606,26.25,75102.3,21.47,0.43,3.33,0,*4C
1501599723.43,5607,26.25,75106.3,21.47,0.25,3.23,0,*4C
1501599724.69,5608,26.25,75104.0,21.47,0.21,3.15,0,*42
1501599725.9,5609,26.25,75102.5,21.47,-0.15,2.65,0,*6F
1501599727.11,5610,26.25,75102.8,21.49,-0.27,2.65,0,*68
1501599728.33,5611,26.25,75100.3,21.47,0.13,2.91,0,*46
1501599729.56,5612,26.25,75104.0,21.43,-0.33,2.47,0,*65
1501599730.81,5613,26.25,75102.0,21.43,-0.23,2.55,0,*66
1501599732.04,5614,26.25,75102.3,21.41,-0.27,2.43,0,*60
1501599733.26,5615,26.25,75100.3,21.41,0.17,2.81,0,*41
1501599734.47,5616,26.25,75104.3,21.39,-0.29,2.27,0,*61
1501599735.68,5617,26.25,75100.5,21.37,-0.45,2.13,0,*63
1501599736.88,5618,26.25,75102.8,21.37,-0.29,2.17,0,*62
1501599738.12,5619,26.25,75102.5,21.35,0.17,2.69,0,*48
1501599739.33,5620,26.25,75100.5,21.37,0.21,2.61,0,*4D
1501599740.55,5621,26.25,75104.3,21.37,0.29,2.59,0,*4F
1501599741.79,5622,26.25,75106.0,21.35,-0.19,2.17,0,*6A
1501599743.02,5623,26.25,75104.3,21.35,-0.15,2.17,0,*67
1501599744.2,5624,26.25,75104.3,21.29,-0.29,1.83,0,*6C
1501599745.44,5625,26.25,75106.5,21.31,0.37,2.55,0,*4E
1501599746.69,5626,26.25,75102.3,21.31,0.63,2.77,0,*4C
1501599747.93,5627,26.25,75102.5,21.31,0.13,2.21,0,*49
1501599749.19,5628,26.25,75104.0,21.31,-0.23,1.63,0,*6D
1501599750.39,5629,26.25,75100.5,21.29,-0.81,1.25,0,*6F
1501599751.62,5630,26.25,75104.8,21.29,-1.09,0.87,0,*6F
1501599752.85,5631,26.25,75104.3,21.27,-0.77,1.13,0,*64
1501599754.06,5632,26.25,75106.3,21.25,-0.57,1.29,0,*6E
1501599755.28,5633,26.25,75104.0,21.27,-0.29,1.55,0,*6F
1501599756.46,5634,26.25,75104.3,21.25,-0.45,1.41,0,*65
1501599757.68,5635,26.25,75106.5,21.27,-0.27,1.41,0,*62
1501599758.88,5636,26.25,75106.8,21.25,-0.27,1.41,0,*63
1501599760.1,5637,26.25,75106.0,21.25,-0.27,1.43,0,*60
1501599761.33,5638,26.25,75104.3,21.25,-0.27,1.55,0,*68
1501599762.53,5639,26.25,75102.3,21.25,-0.53,1.17,0,*6C
1501599763.74,5640,26.25,75104.8,21.25,-0.37,1.21,0,*65
1501599764.96,5641,26.25,75102.5,21.27,-0.65,0.95,0,*5F
1501599766.17,5642,26.25,75102.0,21.25,-1.33,0.33,0,*60
1501599767.42,5643,26.25,75102.5,21.27,-0.89,0.71,0,*55
1501599768.63,5644,26.25,75106.5,21.27,-0.65,1.01,0,*66
1501599769.88,5645,26.25,75104.8,21.27,-1.01,0.71,0,*62
1501599771.09,5646,26.25,75106.5,21.27,-0.65,1.05,0,*60
1501599772.34,5647,26.25,75102.3,21.31,-0.93,0.79,0,*55
1501599773.57,5648,26.25,75106.8,21.31,-0.45,1.29,0,*65
1501599774.77,5649,26.25,75100.5,21.29,-0.53,1.21,0,*62
1501599775.98,5650,26.25,75104.3,21.31,-0.73,0.97,0,*5D
1501599777.21,5651,26.25,75104.8,21.35,-0.81,0.91,0,*53
1501599778.47,5652,26.25,75104.3,21.35,-1.01,0.67,0,*60
1501599779.7,5653,26.25,75104.0,21.37,-1.13,0.67,0,*60
1501599780.93,5654,26.25,75104.5,21.41,-1.09,0.75,0,*6E
1501599782.16,5655,26.25,75106.5,21.41,-1.13,0.67,0,*67
1501599783.37,5656,26.25,75104.8,21.45,-1.21,0.55,0,*60
1501599784.57,5657,26.25,75104.8,21.45,-1.51,0.33,0,*66
1501599785.84,5658,26.25,75104.3,21.47,-1.87,0.21,0,*63
1501599787.05,5659,26.25,75106.0,21.49,-2.11,-0.03,0,*7D
1501599788.23,5660,26.25,75104.0,21.49,-2.27,-0.19,0,*49
1501599789.46,5661,26.25,75110.5,21.51,-2.07,0.05,0,*53
1501599790.7,5662,26.25,75106.0,21.51,-2.59,-0.49,0,*4E
1501599791.9,5663,26.25,75104.8,21.53,-3.31,-1.21,0,*7D
1501599793.12,5664,26.25,75106.0,21.53,-3.59,-1.51,0,*73
1501599794.33,5665,26.25,75106.0,21.57,-4.05,-1.75,0,*7E
1501599795.58,5666,26.25,75110.3,21.57,-4.09,-1.87,0,*7C
1501599796.82,5667,26.25,75104.5,21.57,-4.17,-1.91,0,*75
1501599798.06,5668,26.25,75104.3,21.57,-4.29,-1.91,0,*77
1501599799.29,5669,26.25,75104.3,21.59,-4.33,-1.99,0,*7B
1501599800.5,5670,26.25,75108.5,21.59,-4.45,-2.11,0,*71
1501599801.69,5671,26.25,75104.5,21.59,-4.53,-2.23,0,*76
1501599802.9,5672,26.25,75104.3,21.59,-4.89,-2.39,0,*79
1501599804.11,5673,26.25,75106.5,21.59,-4.93,-2.43,0,*7E
1501599805.37,5674,26.25,75108.5,21.61,-4.93,-2.47,0,*76
1501599806.63,5675,26.25,75104.8,21.61,-4.93,-2.47,0,*77
1501599807.82,5676,26.25,75104.8,21.63,-4.99,-2.43,0,*78
1501599809.09,5677,26.25,75104.8,21.61,-5.31,-2.67,0,*7E
1501599810.29,5678,26.25,75106.8,21.63,-5.51,-2.95,0,*78
1501599811.52,5679,26.25,75106.5,21.63,-6.27,-3.55,0,*76
1501599812.73,5680,26.25,75106.5,21.61,-5.97,-3.35,0,*7C
1501599813.96,5681,26.25,75104.0,21.63,-5.69,-2.95,0,*75
1501599815.18,5682,26.25,75104.0,21.63,-5.15,-2.43,0,*76
1501599816.41,5683,26.25,75106.5,21.65,-5.47,-2.59,0,*7D
1501599817.64,5684,26.25,75108.8,21.67,-5.55,-2.67,0,*76
1501599818.86,5685,26.25,75106.8,21.67,-5.55,-2.55,0,*76
1501599820.07,5686,26.25,75104.5,21.67,-5.43,-2.51,0,*76
1501599821.29,5687,26.25,75104.8,21.71,-5.55,-2.59,0,*7F
1501599822.53,5688,26.25,75106.0,21.73,-5.69,-2.83,0,*7A
1501599823.71,5689,26.25,75106.8,21.75,-5.35,-2.39,0,*75
1501599824.93,5690,26.25,75106.8,21.75,-5.23,-2.31,0,*72
1501599826.12,5691,26.25,75108.3,21.79,-5.39,-2.39,0,*7C
1501599827.35,5692,26.25,75106.8,21.81,-5.11,-2.19,0,*70
1501599828.56,5693,26.25,75104.3,21.83,-5.65,-2.79,0,*76
1501599829.79,5694,26.25,75106.3,21.85,-5.73,-2.87,0,*71
1501599831.0,5695,26.25,75106.8,21.87,-5.61,-2.87,0,*71
1501599832.21,5696,26.25,75104.5,21.87,-6.55,-3.51,0,*7C
1501599833.4,5697,26.25,75104.3,21.87,-6.55,-3.91,0,*71
1501599834.59,5698,26.25,75104.5,21.87,-5.97,-3.27,0,*7E
1501599835.8,5699,26.25,75106.8,21.89,-6.63,-4.17,0,*7D
1501599837.04,5700,26.25,75106.0,21.91,-6.23,-3.75,0,*72
1501599838.28,5701,26.25,75106.8,21.91,-7.11,-4.73,0,*72
1501599839.52,5702,26.25,75106.8,21.95,-7.49,-5.11,0,*7D
1501599840.78,5703,26.25,75104.8,21.95,-7.05,-4.73,0,*71
1501599842.03,5704,26.25,75108.3,21.93,-7.43,-5.27,0,*72
1501599843.25,5705,26.25,75104.3,21.93,-7.87,-5.85,0,*73
1501599844.48,5706,26.25,75108.0,21.93,-7.61,-5.73,0,*71
1501599845.73,5707,26.25,75104.0,21.95,-7.43,-5.51,0,*76
1501599846.94,5708,26.25,75106.8,21.95,-7.87,-5.97,0,*7B
1501599848.15,5709,26.25,75108.5,21.95,-8.29,-6.51,0,*78
1501599849.42,5710,26.25,75106.3,21.95,-7.91,-6.19,0,*70
1501599850.69,5711,26.25,75104.8,21.95,-7.69,-5.89,0,*7C
1501599851.9,5712,26.25,75104.3,21.97,-7.53,-5.93,0,*7F
1501599853.11,5713,26.25,75100.8,21.97,-8.07,-6.51,0,*7D
1501599854.33,5714,26.25,75106.8,21.97,-8.07,-6.59,0,*72
1501599855.54,5715,26.25,75100.8,21.97,-7.99,-6.59,0,*7B
1501599856.74,5716,26.25,75106.3,21.97,-7.65,-6.13,0,*75
1501599857.96,5717,26.25,75106.8,21.99,-8.45,-7.15,0,*70
1501599859.17,5718,26.25,75104.3,21.99,-10.09,-8.71,0,*43
1501599860.41,5719,26.25,75106.0,21.99,-9.23,-7.95,0,*77
1501599861.62,5720,26.25,75106.3,21.99,-8.55,-7.15,0,*75
1501599862.84,5721,26.25,75106.0,21.95,-8.71,-7.49,0,*77
1501599864.08,5722,26.25,75108.0,21.97,-8.81,-7.43,0,*73
1501599865.3,5723,26.25,75108.3,21.97,-8.93,-7.69,0,*79
1501599866.49,5724,26.25,75106.3,21.97,-9.57,-8.25,0,*70
1501599867.69,5725,26.25,75106.3,21.97,-9.71,-8.37,0,*76
1501599868.9,5726,26.25,75104.3,21.97,-9.19,-7.73,0,*74
1501599870.14,5727,26.25,75104.5,21.99,-8.59,-7.35,0,*7C
1501599871.38,5728,26.25,75106.8,22.03,-9.05,-7.73,0,*79
1501599872.62,5729,26.25,75106.5,21.99,-9.27,-7.91,0,*74
1501599873.85,5730,26.25,75106.3,22.03,-8.93,-7.49,0,*77
1501599875.09,5731,26.25,75104.3,22.03,-9.31,-7.77,0,*72
1501599876.35,5732,26.25,75104.3,22.03,-9.41,-7.91,0,*7E
1501599877.57,5733,26.25,75104.5,22.03,-8.97,-7.49,0,*70
1501599878.81,5734,26.25,75104.5,22.05,-9.11,-7.61,0,*74
1501599880.02,5735,26.25,75104.3,22.05,-9.61,-8.17,0,*7C
1501599881.23,5736,26.25,75106.3,22.05,-9.31,-7.77,0,*73
1501599882.43,5737,26.25,75104.3,22.07,-9.89,-8.21,0,*7F
1501599883.69,5738,26.25,75106.5,22.07,-9.49,-7.99,0,*70
1501599884.96,5739,26.25,75106.3,22.07,-9.15,-7.61,0,*7F
1501599886.2,5740,26.25,75106.0,22.07,-8.93,-7.39,0,*73
1501599887.45,5741,26.25,75104.3,22.11,-9.23,-7.65,0,*76
1501599888.72,5742,26.31,75104.5,22.11,-9.15,-7.57,0,*71
1501599889.96,5743,26.25,75106.8,22.11,-9.23,-7.77,0,*77
1501599891.24,5744,26.25,75102.5,22.11,-9.15,-7.65,0,*76
1501599892.48,5745,26.25,75102.8,22.11,-8.89,-7.39,0,*7A
1501599893.7,5746,26.25,75106.3,22.11,-8.63,-7.15,0,*73
1501599894.94,5747,26.25,75106.8,22.15,-8.93,-7.39,0,*77
1501599896.13,5748,26.25,75102.8,22.17,-8.63,-7.23,0,*7E
1501599897.34,5749,26.25,75106.8,22.17,-9.19,-7.65,0,*71
1501599898.58,5750,26.25,75106.0,22.19,-8.75,-7.35,0,*79
1501599899.77,5751,26.25,75104.0,22.17,-9.27,-7.83,0,*7D
1501599901.01,5752,26.31,75108.3,22.17,-9.15,-7.77,0,*74
1501599902.25,5753,26.25,75106.3,22.19,-9.01,-7.57,0,*7C
1501599903.51,5754,26.25,75106.8,22.21,-8.81,-7.35,0,*7D
1501599904.76,5755,26.25,75106.8,22.21,-8.93,-7.61,0,*7E
1501599906.0,5756,26.25,75106.8,22.25,-9.31,-7.99,0,*77
1501599907.22,5757,26.25,75106.5,22.25,-9.71,-8.37,0,*79
1501599908.49,5758,26.25,75104.8,22.25,-9.45,-8.07,0,*72
1501599909.71,5759,26.25,75104.3,22.25,-9.83,-8.55,0,*7E
1501599910.91,5760,26.25,75102.8,22.25,-9.89,-8.63,0,*7B
1501599912.13,5761,26.25,75100.8,22.27,-9.31,-8.11,0,*7E
1501599913.34,5762,26.25,75106.5,22.27,-9.19,-7.95,0,*74
1501599914.56,5763,26.25,75102.8,22.27,-9.19,-7.99,0,*79
1501599915.76,5764,26.25,75102.0,22.29,-9.71,-8.63,0,*74
1501599916.98,5765,26.31,75104.0,22.29,-9.53,-8.25,0,*77
1501599918.19,5766,26.31,75104.8,22.29,-9.19,-8.17,0,*7B
1501599919.37,5767,26.25,75104.3,22.31,-9.97,-8.71,0,*75
1501599920.6,5768,26.31,75104.3,22.29,-10.41,-9.31,0,*45
1501599921.83,5769,26.25,75106.8,22.29,-10.15,-9.15,0,*43
1501599923.04,5770,26.31,75106.3,22.31,-9.79,-8.81,0,*7C
1501599924.22,5771,26.25,75102.0,22.31,-9.75,-8.71,0,*7E
1501599925.42,5772,26.25,75104.3,22.31,-9.61,-8.55,0,*7E
1501599926.62,5773,26.25,75102.3,22.31,-9.53,-8.55,0,*7E
1501599927.8,5774,26.25,75104.3,22.31,-10.05,-9.01,0,*42
1501599929.02,5775,26.25,75106.8,22.33,-9.75,-8.85,0,*73
1501599930.24,5776,26.25,75102.5,22.33,-10.19,-9.27,0,*4B
1501599931.45,5777,26.25,75106.0,22.33,-10.09,-9.27,0,*4B
1501599932.63,5778,26.31,75104.0,22.31,-9.79,-8.93,0,*77
1501599933.85,5779,26.25,75102.3,22.33,-9.67,-8.85,0,*7C
1501599935.05,5780,26.25,75102.0,22.33,-9.67,-8.71,0,*71
1501599936.26,5781,26.25,75100.3,22.35,-9.41,-8.75,0,*76
1501599937.49,5782,26.25,75102.0,22.37,-9.45,-8.63,0,*74
1501599938.72,5783,26.25,75104.0,22.37,-9.97,-9.41,0,*7B
1501599939.91,5784,26.25,75102.3,22.35,-10.45,-9.71,0,*4A
1501599941.11,5785,26.31,75104.3,22.37,-9.97,-9.31,0,*7A
1501599942.31,5786,26.25,75102.3,22.37,-9.89,-9.19,0,*7C
1501599943.55,5787,26.25,75102.0,22.35,-10.41,-9.61,0,*4C
1501599944.78,5788,26.25,75102.0,22.37,-9.53,-8.85,0,*71
1501599946.02,5789,26.25,75102.8,22.37,-9.15,-8.45,0,*7E
1501599947.23,5790,26.31,75106.3,22.39,-9.11,-8.67,0,*7C
1501599948.44,5791,26.25,75106.8,22.39,-9.49,-8.97,0,*7F
1501599949.65,5792,26.25,75104.0,22.39,-9.67,-9.15,0,*7B
1501599950.85,5793,26.31,75104.0,22.39,-10.05,-9.49,0,*4F
1501599952.09,5794,26.31,75104.3,22.41,-9.49,-8.97,0,*75
1501599953.35,5795,26.31,75106.0,22.41,-9.53,-9.11,0,*70
1501599954.58,5796,26.31,75106.8,22.39,-9.61,-9.11,0,*7D
1501599955.81,5797,26.25,75104.8,22.41,-9.53,-8.85,0,*7E
1501599957.05,5798,26.31,75104.3,22.41,-9.53,-9.27,0,*78
1501599958.25,5799,26.25,75106.0,22.43,-9.49,-9.31,0,*77
1501599959.46,5800,26.31,75106.5,22.43,-9.93,-9.57,0,*7F
1501599960.66,5801,26.25,75102.3,22.39,-9.61,-9.27,0,*79
1501599961.92,5802,26.31,75102.5,22.41,-9.61,-9.49,0,*7D
1501599963.13,5803,26.31,75102.8,22.41,-8.97,-8.71,0,*7E
1501599964.34,5804,26.25,75102.8,22.41,-8.71,-8.55,0,*77
1501599965.55,5805,26.25,75102.0,22.41,-8.67,-8.41,0,*74
1501599966.76,5806,26.31,75106.0,22.47,-8.45,-3.63,0,*7A
1501599967.95,5807,26.31,75102.8,22.47,-5.97,-0.33,0,*4F
1501599969.14,5808,26.25,75100.0,22.43,-6.81,-1.29,0,*7A
1501599970.38,5809,26.25,75102.8,22.43,-7.01,-1.39,0,*73
1501599971.6,5810,26.25,75100.5,22.43,-7.11,-1.39,0,*7A
1501599972.81,5811,26.31,75100.5,22.41,-6.47,-0.81,0,*49
1501599974.02,5812,26.25,75100.3,22.39,-6.19,-0.45,0,*46
1501599975.19,5813,26.31,75100.5,22.39,-6.31,-0.61,0,*4B
1501599976.42,5814,26.31,75102.3,22.41,-6.05,-0.23,0,*42
1501599977.63,5815,26.31,75100.5,22.39,-6.05,-0.23,0,*4C
1501599978.86,5816,26.31,75100.0,22.39,-5.93,-0.23,0,*43
1501599980.04,5817,26.31,75100.0,22.39,-6.31,-0.61,0,*4F
1501599981.24,5818,26.31,75100.5,22.39,-6.69,-0.97,0,*44
1501599982.46,5819,26.25,75102.3,22.37,-6.77,-0.97,0,*44
1501599983.66,5820,26.31,75102.8,22.37,-6.47,-0.65,0,*40
1501599984.85,5821,26.31,75102.3,22.35,-6.51,-0.77,0,*47
1501599986.06,5822,26.31,75102.5,22.37,-6.47,-0.73,0,*45
1501599987.27,5823,26.25,75100.0,22.35,-6.27,-0.41,0,*41
1501599988.5,5824,26.31,75104.8,22.37,-6.23,-0.37,0,*41
1501599989.73,5825,26.31,75102.3,22.37,-6.89,-1.13,0,*77
1501599990.98,5826,26.31,75104.3,22.37,-7.69,-1.95,0,*75
1501599992.19,5827,26.31,75100.8,22.35,-7.95,-2.15,0,*7E
1501599993.41,5828,26.31,75100.5,22.31,-8.11,-2.19,0,*7A
1501599994.68,5829,26.25,75102.0,22.33,-7.73,-1.91,0,*71
1501599995.91,5830,26.31,75102.5,22.33,-6.81,-0.93,0,*46
1501599997.11,5831,26.31,75104.0,22.31,-6.73,-0.85,0,*4F
1501599998.31,5832,26.31,75106.0,22.31,-6.69,-0.97,0,*44
1501599999.49,5833,26.31,75106.3,22.31,-6.43,-0.73,0,*47
1501600000.71,5834,26.31,75100.5,22.31,-7.23,-1.47,0,*71
1501600001.91,5835,26.31,75102.5,22.31,-8.03,-2.15,0,*79
1501600003.1,5836,26.31,75104.5,22.31,-7.53,-1.71,0,*71
1501600004.33,5837,26.31,75102.5,22.29,-6.77,-0.93,0,*43
1501600005.56,5838,26.31,75104.3,22.29,-7.15,-1.35,0,*74
1501600006.78,5839,26.31,75102.3,22.29,-6.85,-0.89,0,*4B
1501600008.01,5840,26.31,75100.8,22.29,-7.11,-1.13,0,*7B
1501600009.23,5841,26.31,75102.0,22.27,-7.05,-1.17,0,*75
1501600010.44,5842,26.31,75100.5,22.27,-6.89,-1.05,0,*70
1501600011.67,5843,26.31,75102.3,22.29,-6.59,-0.85,0,*4B
1501600012.89,5844,26.31,75104.8,22.29,-6.77,-0.89,0,*4C
1501600014.1,5845,26.31,75100.8,22.29,-6.59,-0.77,0,*40
1501600015.3,5846,26.31,75100.8,22.29,-6.47,-0.57,0,*4E
1501600016.53,5847,26.31,75102.8,22.29,-7.01,-1.21,0,*7C
1501600017.76,5848,26.31,75106.5,22.29,-7.31,-2.83,0,*7B
1501600018.99,5849,26.31,75100.5,22.29,-7.39,-2.95,0,*75
1501600020.21,5850,26.31,75102.0,22.27,-11.81,-11.41,0,*7C
1501600021.43,5851,26.31,75104.8,22.27,-11.37,-11.11,0,*75
1501600022.67,5852,26.31,75104.0,22.27,-11.29,-10.97,0,*76
1501600023.92,5853,26.31,75100.8,22.29,-10.93,-10.63,0,*72
1501600025.17,5854,26.31,75102.3,22.27,-11.63,-11.51,0,*75
1501600026.44,5855,26.31,75102.8,22.29,-11.89,-11.67,0,*7B
1501600027.69,5856,26.31,75102.8,22.27,-11.51,-11.29,0,*79
1501600028.89,5857,26.31,75100.0,22.27,-11.15,-10.97,0,*7C
1501600030.11,5858,26.31,75104.3,22.29,-10.49,-10.23,0,*7A
1501600031.35,5859,26.31,75100.3,22.29,-10.75,-10.49,0,*78
1501600032.57,5860,26.31,75102.3,22.29,-10.49,-10.27,0,*75
1501600033.77,5861,26.31,75104.3,22.31,-10.45,-10.05,0,*71
1501600035.02,5862,26.31,75102.8,22.33,-10.63,-10.23,0,*70
1501600036.27,5863,26.31,75102.3,22.33,-10.93,-10.63,0,*7A
1501600037.52,5864,26.31,75104.8,22.33,-10.89,-10.63,0,*76
1501600038.74,5865,26.31,75102.3,22.35,-10.41,-10.05,0,*75
1501600039.96,5866,26.31,75100.5,22.37,-10.49,-10.23,0,*78
1501600041.18,5867,26.31,75102.0,22.37,-10.27,-9.97,0,*46
1501600042.39,5868,26.31,75100.5,22.37,-10.27,-9.89,0,*46
1501600043.58,5869,26.31,75102.3,22.39,-10.49,-10.23,0,*79
1501600044.78,5870,26.31,75104.5,22.39,-10.45,-10.23,0,*7D
1501600046.0,5871,26.31,75106.0,22.41,-10.23,-10.09,0,*7B
1501600047.21,5872,26.31,75102.8,22.41,-10.09,-9.67,0,*40
1501600048.45,5873,26.31,75104.0,22.41,-9.79,-9.49,0,*72
1501600049.65,5874,26.31,75102.5,22.47,-10.35,-10.23,0,*77
1501600050.85,5875,26.31,75102.5,22.47,-10.53,-10.27,0,*72
1501600052.08,5876,26.31,75100.0,22.43,-10.63,-10.31,0,*71
1501600053.29,5877,26.31,75104.5,22.43,-10.27,-10.01,0,*73
1501600054.51,5878,26.31,75102.5,22.49,-11.15,-10.89,0,*76
1501600055.78,5879,26.31,75102.3,22.49,-11.63,-11.33,0,*76
1501600057.05,5880,26.31,75102.3,22.49,-11.89,-11.73,0,*70
1501600058.33,5881,26.31,75100.8,22.49,-11.07,-10.75,0,*70
1501600059.58,5882,26.31,75102.5,22.49,-10.75,-10.45,0,*74
1501600060.84,5883,26.31,75102.5,22.49,-10.67,-10.35,0,*71
1501600062.06,5884,26.31,75106.8,22.49,-10.89,-10.53,0,*76
1501600063.28,5885,26.31,75106.8,22.49,-10.53,-10.23,0,*77
1501600064.52,5886,26.31,75100.5,22.49,-10.09,-9.83,0,*49
1501600065.75,5887,26.31,75102.3,22.49,-9.93,-9.57,0,*7A
1501600066.97,5888,26.31,75100.3,22.51,-10.67,-10.53,0,*73
1501600068.2,5889,26.31,75100.0,22.51,-10.89,-10.67,0,*75
1501600069.43,5890,26.31,75102.3,22.51,-10.75,-10.49,0,*72
1501600070.64,5891,26.31,75102.5,22.51,-11.37,-11.15,0,*7C
1501600071.87,5892,26.31,75102.5,22.51,-11.77,-11.45,0,*7E
1501600073.07,5893,26.31,75102.3,22.51,-13.19,-12.89,0,*76
1501600074.32,5894,26.31,75104.5,22.49,-12.71,-12.43,0,*71
1501600075.59,5895,26.31,75100.8,22.49,-11.37,-11.07,0,*72
1501600076.84,5896,26.31,75104.0,22.51,-11.85,-11.59,0,*7A
1501600078.09,5897,26.31,75100.8,22.49,-11.29,-11.01,0,*79
1501600079.36,5898,26.31,75104.0,22.49,-11.85,-11.73,0,*75
1501600080.59,5899,26.31,75100.0,22.47,-11.55,-11.41,0,*76
1501600081.84,5900,26.31,75104.3,22.49,-12.29,-12.11,0,*77
1501600083.09,5901,26.31,75100.0,22.47,-12.35,-12.07,0,*72
1501600084.32,5902,26.31,75100.5,22.43,-11.41,-11.29,0,*7A
1501600085.57,5903,26.31,75100.5,22.47,-11.93,-11.77,0,*7B
1501600086.82,5904,26.31,75098.3,22.47,-12.07,-11.81,0,*7B
1501600088.05,5905,26.31,75100.3,22.43,-11.67,-11.45,0,*73
1501600089.28,5906,26.31,75100.0,22.43,-11.55,-11.41,0,*75
1501600090.5,5907,26.31,75102.3,22.43,-11.67,-11.45,0,*71
1501600091.71,5908,26.31,75102.5,22.43,-12.97,-12.93,0,*7A
1501600092.93,5909,26.31,75100.0,22.41,-12.25,-12.03,0,*79
1501600094.16,5910,26.31,75100.0,22.39,-12.71,-12.47,0,*7F
1501600095.4,5911,26.31,75100.3,22.39,-11.73,-11.51,0,*7B
1501600096.64,5912,26.31,75098.3,22.39,-11.85,-11.73,0,*71
1501600097.88,5913,26.31,75102.0,22.39,-11.73,-11.59,0,*71
1501600099.14,5914,26.31,75102.5,22.39,-11.85,-11.63,0,*76
1501600100.39,5915,26.31,75104.8,22.39,-12.75,-12.71,0,*7B
1501600101.64,5916,26.31,75102.5,22.39,-12.71,-12.71,0,*7C
1501600102.87,5917,26.31,75100.8,22.35,-12.53,-12.39,0,*7D
1501600104.1,5918,26.31,75102.5,22.35,-15.39,-15.29,0,*7F
1501600105.29,5919,26.31,75102.0,22.31,-13.55,-13.47,0,*78
1501600106.52,5920,26.31,75102.5,22.31,-12.53,-12.43,0,*70
1501600107.74,5921,26.31,75100.8,22.31,-12.97,-12.75,0,*7C
1501600108.97,5922,26.31,75098.5,22.31,-12.75,-12.89,0,*70
1501600110.19,5923,26.31,75098.3,22.31,-12.57,-12.43,0,*77
1501600111.41,5924,26.31,75100.0,22.29,-12.93,-12.97,0,*78
1501600112.64,5925,26.31,75098.3,22.27,-12.93,-12.79,0,*77